Regional Weather Roundup
Issued by NWS

Home | Current Version | Previous Version | Text Only | Print | Product List | Glossary On
Versions: 1 2 3 4 5 6 7 8 9 10 11 12 13 14 15 16 17 18 19 20 21 22 23 24 25 26 27 28
000
ASUS46 KSEW 241210
RWRWA

WASHINGTON REGIONAL WEATHER ROUNDUP
NATIONAL WEATHER SERVICE SEATTLE WA
400 AM PST TUE JAN 24 2017

NOTE:"FAIR" INDICATES FEW OR NO CLOUDS BELOW 12,000 FEET WITH NO
SIGNIFICANT WEATHER AND/OR OBSTRUCTIONS TO VISIBILITY.

WAZ507-509-555>559-241300-
SEATTLE, TACOMA, EVERETT, AND VICINITY

CITY           SKY/WX    TMP DP  RH WIND       PRES   REMARKS
EVERETT        FOG       33  33 100 E3        30.05R VSB 1
6HR MIN TEMP:  31; 6HR MAX TEMP:  38;

BOEING FIELD   PTCLDY    30  29  96 SE6       30.06S
6HR MIN TEMP:  29; 6HR MAX TEMP:  35;

RENTON         PTCLDY    31  30  96 CALM      30.07R FOG
6HR MIN TEMP:  30; 6HR MAX TEMP:  34;

SEATAC AIRPORT PTCLDY    32  30  92 SE6       30.05R
6HR MIN TEMP:  32; 6HR MAX TEMP:  39;

JBLM-MCCHORD   CLEAR     27  27 100 CALM      30.05S
6HR MIN TEMP:  26; 6HR MAX TEMP:  30; 6HR PCP: TRACE;

PUYALLUP         N/A     27  27 100 CALM      30.04S
BREMERTON      MOCLDY    27  25  93 CALM      30.08R
6HR MIN TEMP:  27; 6HR MAX TEMP:  28;

JBLM-FT LEWIS  CLEAR     27  27 100 SE3       30.05S
6HR MIN TEMP:  26; 6HR MAX TEMP:  31;

TACOMA NARROWS FOG       36  36 100 CALM      30.05S VSB 1/4
6HR MIN TEMP:  33; 6HR MAX TEMP:  39;

$$

WAZ001-503-506-510-514-515-241300-
NORTH INTERIOR

CITY           SKY/WX    TMP DP  RH WIND       PRES   REMARKS
BELLINGHAM     CLOUDY    34  34 100 CALM      30.04S
6HR MIN TEMP:  29; 6HR MAX TEMP:  37;

FRIDAY HARBOR  CLOUDY    33  32  96 CALM      30.06R FOG
6HR MIN TEMP:  31; 6HR MAX TEMP:  36;

EASTSOUND      CLOUDY    37  37 100 CALM      30.04R
PORT ANGELES   PTCLDY    37  30  75 W9        30.05R
6HR MIN TEMP:  29; 6HR MAX TEMP:  39;

EDIZ HOOK      FAIR      38  33  83 S3        30.06R
6HR MIN TEMP:  37; 6HR MAX TEMP:  40;

PORT TOWNSEND  CLOUDY    25  23  93 CALM      30.07R
NAS WHIDBEY    MOCLDY    37  34  89 SE6       30.09R FOG
6HR MIN TEMP:  32; 6HR MAX TEMP:  39;

ARLINGTON      NOT AVBL
BURLINGTON     CLOUDY    34  32  93 CALM      30.06R
$$

WAZ020-022-039-040-504-511-512-241300-
SOUTHWEST INTERIOR

CITY           SKY/WX    TMP DP  RH WIND       PRES   REMARKS
SHELTON        MOCLDY    29  27  92 CALM      30.03S
6HR MIN TEMP:  28; 6HR MAX TEMP:  32;

OLYMPIA        FOG       28  28 100 CALM      30.06S VSB 1/2
6HR MIN TEMP:  25; 6HR MAX TEMP:  29;

CHEHALIS       FOG       30  30 100 CALM      30.07R VSB 1/4
KELSO          CLEAR     26  25  96 N3        30.08R
6HR MIN TEMP:  26; 6HR MAX TEMP:  35;

VANCOUVER      CLOUDY    32  30  92 CALM      30.07R
6HR MIN TEMP:  30; 6HR MAX TEMP:  36;

SCAPPOOSE, OR  CLEAR     28  28 100 CALM      30.07R
6HR MIN TEMP:  27; 6HR MAX TEMP:  38;

PORTLAND, OR   PTCLDY    27  26  96 CALM      30.07R
6HR MIN TEMP:  27; 6HR MAX TEMP:  35;

$$

WAZ021-516-517-241300-
WASHINGTON COAST

CITY           SKY/WX    TMP DP  RH WIND       PRES   REMARKS
FORKS          CLOUDY    33  32  96 E3        30.05R
6HR MIN TEMP:  28; 6HR MAX TEMP:  33;

HOQUIAM        FOG       30  30 100 NE3       30.06R VSB 1/4
6HR MIN TEMP:  29; 6HR MAX TEMP:  36;

ASTORIA, OR    CLEAR     31  26  82 E3        30.06R
6HR MIN TEMP:  31; 6HR MAX TEMP:  36;

$$

WAZ019-023-024-040-567>569-241300-
CASCADE MOUNTAINS AND COLUMBIA GORGE

CITY           SKY/WX    TMP DP  RH WIND       PRES   REMARKS
STAMPEDE PASS  NOT AVBL
TROUTDALE, OR  CLEAR     29  28  96 CALM      30.07R
6HR MIN TEMP:  28; 6HR MAX TEMP:  37;

THE DALLES, OR CLOUDY    34  31  88 CALM      30.07R
6HR MIN TEMP:  34; 6HR MAX TEMP:  35;

$$

WAZ026-027-041>044-520-521-241300-
EAST SLOPES

CITY           SKY/WX    TMP DP  RH WIND       PRES   REMARKS
OMAK           FOG       32  29  88 CALM      29.98R VSB 3/4
6HR MIN TEMP:  31; 6HR MAX TEMP:  33;

WENATCHEE      CLEAR     23  22  96 CALM      29.99R
6HR MIN TEMP:  22; 6HR MAX TEMP:  28;

ELLENSBURG     FOG       23  21  92 NE5       29.97R VSB 1/4
6HR MIN TEMP:  23; 6HR MAX TEMP:  25;

YAKIMA         CLOUDY    24  22  91 SW6       30.03R FOG
6HR MIN TEMP:  25; 6HR MAX TEMP:  26;

$$

WAZ028-034-035-241300-
COLUMBIA BASIN

CITY           SKY/WX    TMP DP  RH WIND       PRES   REMARKS
EPHRATA        FOG       27  23  85 NW5       29.98R VSB 1
6HR MIN TEMP:  19; 6HR MAX TEMP:  27;

MOSES LAKE     CLOUDY    26  23  88 W3        30.00R
6HR MIN TEMP:  26; 6HR MAX TEMP:  32;

PASCO          CLOUDY    32  30  92 CALM      30.05R
6HR MIN TEMP:  30; 6HR MAX TEMP:  34;

HERMISTON, OR  CLOUDY    31  31 100 W6        30.04R FOG
6HR MIN TEMP:  31; 6HR MAX TEMP:  32;

$$

WAZ036>038-241300-
NORTHEAST WASHINGTON

CITY           SKY/WX    TMP DP  RH WIND       PRES   REMARKS
SPOKANE GEIGER SNOW      29  29 100 SW3       29.92S VSB 1/4
6HR MIN TEMP:  29; 6HR MAX TEMP:  31; 6HR PCP: TRACE;

SPOKANE FELTS  CLOUDY    32  31  96 W3        29.95R
6HR MIN TEMP:  32; 6HR MAX TEMP:  34;

FAIRCHILD AFB  LGT SNOW  28  28 100 W7        29.92R FOG
                                      6HR PCP: TRACE;

COEURDALENE,ID FOG       30  30 100 N3        29.93R VSB 1
6HR MIN TEMP:  29; 6HR MAX TEMP:  30;

DEER PARK      CLOUDY    31  30  96 CALM      29.93R FOG
6HR MIN TEMP:  30; 6HR MAX TEMP:  32;

$$

WAZ029>033-241300-
SOUTHEAST WASHINGTON

CITY           SKY/WX    TMP DP  RH WIND       PRES   REMARKS
PULLMAN        CLOUDY    29  26  89 W7        29.94R FOG
6HR MIN TEMP:  27; 6HR MAX TEMP:  30; 6HR PCP: TRACE;

LEWISTON, ID   CLOUDY    32  27  81 W7        29.98R
6HR MIN TEMP:  31; 6HR MAX TEMP:  32; 6HR PCP: TRACE;

WALLA WALLA    CLOUDY    31  29  92 SE3       30.00R
6HR MIN TEMP:  30; 6HR MAX TEMP:  31;

PENDLETON, OR  CLOUDY    30  30 100 W6        29.99R
6HR MIN TEMP:  30; 6HR MAX TEMP:  31;

$$




USA.gov is the U.S. government's official web portal to all federal, state and local government web resources and services.